Regional Weather Roundup
Issued by NWS

Home | Current Version | Previous Version | Graphics & Text | Print | Product List | Glossary On
Versions: 1 2 3 4 5 6 7 8 9 10 11 12 13 14 15 16 17 18 19 20 21 22 23 24 25 26 27 28 29 30 31 32 33 34 35 36 37 38 39 40 41 42 43 44 45 46 47 48 49 50
781
ASUS43 KDMX 170601
RWRIA

WEATHER ROUNDUP FOR IOWA
NATIONAL WEATHER SERVICE DES MOINES IA
100 AM CDT TUE OCT 17 2017

NOTE: "FAIR" INDICATES FEW OR NO CLOUDS BELOW 12,000 FEET WITH NO
SIGNIFICANT WEATHER AND/OR OBSTRUCTIONS TO VISIBILITY.

* - THESE STATIONS ARE NOT NWS STATIONS...THUS NOT UNDER NWS
QUALITY CONTROL.  THEY ALSO DO NOT REPORT WEATHER SUCH
AS PRECIPITATION OR FOG.

IAZ001>003-012>014-020>022-031>034-043>046-170700-
   NORTHWEST IOWA

CITY           SKY/WX    TMP DP  RH WIND       PRES   REMARKS
CARROLL *      PTCLDY    59  43  55 SW17G24   30.07F
CHEROKEE *     PTCLDY    49  40  72 S5        30.05R
DENISON *      PTCLDY    54  41  62 S10G17    30.09F
LE MARS *      CLEAR     46  41  81 CALM      30.05R
ORANGE CITY *  CLEAR     50  43  76 SW3       30.05S
SHELDON *      CLEAR     54  39  58 SW8       30.01F
SIOUX CITY     PTCLDY    59  39  47 SW10G22   30.04S
6HR MIN TEMP:  50; 6HR MAX TEMP:  66;

SPENCER        CLEAR     54  40  59 SW10      30.04R
6HR MIN TEMP:  53; 6HR MAX TEMP:  61;

STORM LAKE *   CLEAR     55  39  54 SW13G18   30.05S
$$

IAZ055>058-069>071-079>083-090>094-170700-
   SOUTHWEST IOWA

CITY           SKY/WX    TMP DP  RH WIND       PRES   REMARKS
ATLANTIC *     PTCLDY    54  41  62 S10       30.13S
AUDUBON *      PTCLDY    54  41  62 S9        30.12F
CLARINDA *     CLOUDY    50  43  76 S8        30.18F
COUNCIL BLFS * CLEAR     57  41  54 SW13G22   30.11S
CRESTON *      PTCLDY    52  41  66 S14       30.17S
HARLAN  *      PTCLDY    50  41  71 S9        30.14F
LAMONI         CLEAR     52  41  66 S10       30.18F
6HR MIN TEMP:  51; 6HR MAX TEMP:  60;

RED OAK *      PTCLDY    48  41  76 SW6       30.15S
SHENANDOAH *   CLEAR     54  41  62 S7        30.16S
$$

IAZ047>049-059>061-072>074-084-170700-
   CENTRAL IOWA

CITY           SKY/WX    TMP DP  RH WIND       PRES   REMARKS
AMES           CLEAR     53  43  68 S12       30.10F
6HR MIN TEMP:  52; 6HR MAX TEMP:  58;

ANKENY *       CLEAR     55  41  58 S8        30.14F
BOONE *        CLEAR     54  41  62 SW14      30.09F
CHARITON *     CLEAR     50  41  71 S9        30.17S
DES MOINES     PTCLDY    56  41  57 SW13      30.13F
6HR MIN TEMP:  54; 6HR MAX TEMP:  61;

GRINNELL*      CLOUDY    50  40  68 S8        30.16S
KNOXVILLE *    PTCLDY    55  39  54 SW10G21   30.14F
MARSHALLTOWN   CLOUDY    55  41  59 SW14G24   30.10F
6HR MIN TEMP:  52; 6HR MAX TEMP:  58;

NEWTON *       CLOUDY    55  41  58 SW12      30.14S
PELLA *        PTCLDY    54  40  60 SW7       30.16F
PERRY *          N/A     51  40  66 S7        30.11S
$$

IAZ004>006-015-016-023>025-035-036-170700-
   NORTH CENTRAL IOWA

CITY           SKY/WX    TMP DP  RH WIND       PRES   REMARKS
ALGONA *       CLEAR     52  41  66 SW10      30.04S
CLARION *      CLEAR     48  43  81 S9        30.06F
ESTHERVILLE    CLEAR     53  40  61 SW9       30.02R
6HR MIN TEMP:  52; 6HR MAX TEMP:  60;

FORT DODGE *   CLEAR     53  40  61 SW12      30.07S
MASON CITY     CLEAR     56  38  50 SW17      30.05F
6HR MIN TEMP:  50; 6HR MAX TEMP:  56;

FOREST CITY *    N/A     54  39  58 SW9       30.04S
WEBSTER CITY * CLEAR     55  39  54 SW10G18   30.06R
IOWA FALLS *     N/A     55  42  61 S13       30.09S
$$

IAZ007>011-017>019-026>030-037>042-050>054-066-170700-
   NORTHEAST IOWA

CITY           SKY/WX    TMP DP  RH WIND       PRES   REMARKS
CEDAR RAPIDS   CLOUDY    52  39  61 S9        30.14F
6HR MIN TEMP:  50; 6HR MAX TEMP:  55;

CHARLES CITY * CLEAR     52  39  62 S8        30.07S
DECORAH *      CLEAR     54  39  58 SW13G20   30.05S
DUBUQUE        PTCLDY    50  38  63 SW14      30.13F
6HR MIN TEMP:  47; 6HR MAX TEMP:  51;

MONTICELLO *   CLOUDY    50  39  66 S6        30.14S
OELWEIN *      PTCLDY    50  41  71 S8        30.11S
WATERLOO       PTCLDY    54  39  57 SW14      30.08F
6HR MIN TEMP:  51; 6HR MAX TEMP:  55;

$$

IAZ064-065-067-068-078-170700-
   EAST CENTRAL IOWA

CITY           SKY/WX    TMP DP  RH WIND       PRES   REMARKS
DAVENPORT      CLOUDY    53  37  54 SW10      30.19F
6HR MIN TEMP:  49; 6HR MAX TEMP:  53;

IOWA CITY      PTCLDY    52  39  61 S5        30.18F
6HR MIN TEMP:  51; 6HR MAX TEMP:  58;

MUSCATINE *    CLOUDY    50  39  66 S7        30.19S
QUAD CITIES    PTCLDY    54  36  50 SW9       30.18F
6HR MIN TEMP:  48; 6HR MAX TEMP:  54;

$$

IAZ062-063-075>077-085>089-095>099-170700-
   SOUTHEAST IOWA

CITY           SKY/WX    TMP DP  RH WIND       PRES   REMARKS
BURLINGTON     PTCLDY    51  40  65 S9        30.20F
6HR MIN TEMP:  49; 6HR MAX TEMP:  57;

FAIRFIELD *    PTCLDY    52  37  58 SW8       30.18S
FORT MADISON * CLEAR     54  39  58 S8        30.21F
KEOKUK *       CLEAR     50  39  66 SW8       30.21S
OSKALOOSA *      N/A     49  41  72 SW10      30.17F
OTTUMWA        CLOUDY    52  40  63 SW12      30.17F
6HR MIN TEMP:  51; 6HR MAX TEMP:  55;

WASHINGTON *   CLOUDY    52  39  62 SW12      30.19S
$$

ABBREVIATIONS USED IN REMARKS
   TC - TEMPERATURES IN CELSIUS
  WCI - WIND CHILL INDEX
   HX - HEAT INDEX
  VSB - VISIBILITY
$$





USA.gov is the U.S. government's official web portal to all federal, state and local government web resources and services.